,

(GMT )
Charleville

Weather History for LFQV - August, 2014

Change the Weather History Date:

Sunday, August 24, 2014

  Actual Average Record
Temperature  
Mean Temperature 52 °F -  
Max Temperature 66 °F - - ()
Min Temperature 38 °F - - ()
Degree Days  
Heating Degree Days 13    
Growing Degree Days 2 (Base 50)    
Moisture  
Dew Point 45 °F    
Average Humidity 76    
Maximum Humidity 98    
Minimum Humidity 35    
Precipitation  
Precipitation 0.00 in - - ()
Sea Level Pressure  
Sea Level Pressure 30.12 in    
Wind  
Wind Speed 2 mph ()    
Max Wind Speed 8 mph    
Max Gust Speed -    
Visibility 7.9 miles    
Events Fog    
T = Trace of Precipitation, MM = Missing Value Source: Averaged Metar Reports

Daily Weather History Graph

Daily Weather History Graph

Search for Another Location

Airport or City:

Trip Planner

Search our weather history database for the weather conditions in past years. The results will help you decide how hot, cold, wet, or windy it might be!

Date:

Astronomy

Aug. 24, 2014 Rise Set
Actual Time 6:44 AM CEST 8:42 PM CEST
Civil Twilight 6:10 AM CEST 9:16 PM CEST
Nautical Twilight 5:27 AM CEST 9:58 PM CEST
Astronomical Twilight 4:39 AM CEST 10:46 PM CEST
Moon 5:40 AM CEST (8/24) 7:49 PM CEST (8/24)
Length of Visible Light 15h 06m
Length of Day
13h 57m
Waning Crescent, 1% of the Moon is Illuminated
Aug 24
Waning Crescent
Aug 25
New
Sep 2
First Quarter
Sep 9
Full
Sep 16
Last Quarter

Hourly Weather History & Observations

Time (CEST) Temp. Dew Point Humidity Pressure Visibility Wind Dir Wind Speed Gust Speed Precip Events Conditions
12:00 AM 42 °F 41 °F 94% 30.11 in 0 mi Calm Calm - - Fog Partial Fog
1:00 AM 43 °F 42 °F 94% 30.11 in 1 mi WNW 1.2 mph - -   Mist
2:00 AM 40 °F 39 °F 94% 30.12 in 0 mi NW 1.2 mph - - Fog Partial Fog
3:00 AM 39 °F 38 °F 95% 30.12 in 0 mi Calm Calm - - Fog Partial Fog
4:00 AM 42 °F 41 °F 94% 30.12 in 9 mi SSW 3.5 mph - -   Clear
5:00 AM 41 °F 40 °F 97% 30.12 in 6 mi East 2.3 mph - -   Clear
6:00 AM 40 °F 39 °F 94% 30.12 in - Calm Calm - -   Clear
7:00 AM 42 °F 42 °F 98% 30.14 in 0 mi Calm Calm - - Fog Heavy Fog
8:00 AM 45 °F 44 °F 95% 30.15 in 0 mi SE 1.2 mph - - Fog Heavy Fog
9:00 AM 46 °F 46 °F 98% 30.16 in 1 mi Calm Calm - -   Mist
10:00 AM 51 °F 50 °F 95% 30.16 in 8 mi ESE 2.3 mph - -   Clear
11:00 AM 56 °F 51 °F 80% 30.16 in 12 mi ESE 2.3 mph - -   Clear
12:00 PM 61 °F 50 °F 59% 30.14 in 12 mi SW 6.9 mph - -   Clear
1:00 PM 62 °F 47 °F 46% 30.14 in 12 mi West 8.1 mph - -   Clear
2:00 PM 64 °F 48 °F 46% 30.13 in 12 mi West 4.6 mph - -   Clear
3:00 PM 65 °F 45 °F 37% 30.11 in 12 mi SW 6.9 mph - -   Clear
4:00 PM 65 °F 44 °F 35% 30.11 in 12 mi WSW 5.8 mph - -   Clear
5:00 PM 64 °F 45 °F 38% 30.10 in 12 mi WNW 6.9 mph - -   Clear
6:00 PM 65 °F 45 °F 37% 30.09 in 12 mi West 2.3 mph - -   Clear
7:00 PM 64 °F 51 °F 53% 30.08 in 12 mi SSE 1.2 mph - -   Clear
8:00 PM 59 °F 51 °F 69% 30.09 in 12 mi Calm Calm - -   Clear
9:00 PM 53 °F 50 °F 84% 30.10 in 12 mi ESE 2.3 mph - -   Clear
10:00 PM 51 °F 49 °F 89% 30.11 in 12 mi SSE 2.3 mph - -   Clear
11:00 PM 49 °F 47 °F 92% 30.10 in 12 mi Calm Calm - -   Clear